QPF
0.30 0.23 0.16 0.15 0.10 0.08 0.12 0.08 0.05 0.06 0.08 0.08 0.09 0.10 0.08 0.07 0.09 0.09 0.08 0.05 0.05 0.05 0.05 0.07 0.09 0.09 0.11 0.11 0.08 0.10 0.12 0.10 0.10 0.11 0.12 0.12 0.12 0.12 0.11 0.10 0.11 0.13 0.11
0.20 0.12 0.09 0.10 0.09 0.08 0.08 0.06 0.05 0.06 0.08 0.10 0.09 0.12 0.11 0.10 0.10 0.08 0.07 0.05 0.05 0.05 0.07 0.08 0.07 0.07 0.08 0.09 0.09 0.10 0.10 0.10 0.11 0.12 0.14 0.12 0.12 0.12 0.12 0.12 0.11 0.10 0.10
0.17 0.11 0.07 0.07 0.07 0.08 0.09 0.07 0.05 0.05 0.06 0.08 0.11 0.12 0.12 0.12 0.11 0.08 0.06 0.05 0.05 0.06 0.09 0.09 0.06 0.05 0.05 0.05 0.07 0.07 0.09 0.14 0.18 0.17 0.19 0.15 0.13 0.09 0.10 0.16 0.14 0.09 0.07
0.14 0.12 0.07 0.07 0.07 0.06 0.07 0.06 0.05 0.04 0.04 0.06 0.13 0.15 0.12 0.15 0.12 0.07 0.06 0.06 0.06 0.07 0.08 0.10 0.05 0.04 0.03 0.05 0.07 0.06 0.07 0.14 0.20 0.22 0.22 0.18 0.12 0.08 0.08 0.14 0.18 0.10 0.07
0.18 0.14 0.11 0.10 0.07 0.06 0.07 0.07 0.07 0.05 0.04 0.04 0.10 0.16 0.12 0.15 0.10 0.08 0.07 0.08 0.07 0.07 0.06 0.06 0.04 0.04 0.03 0.04 0.05 0.06 0.06 0.16 0.25 0.22 0.19 0.18 0.12 0.08 0.07 0.11 0.16 0.12 0.08
0.18 0.15 0.11 0.10 0.07 0.07 0.07 0.07 0.06 0.05 0.05 0.04 0.07 0.15 0.15 0.11 0.09 0.09 0.09 0.09 0.06 0.06 0.05 0.04 0.04 0.04 0.04 0.04 0.05 0.06 0.04 0.09 0.27 0.22 0.13 0.16 0.13 0.09 0.07 0.08 0.11 0.10 0.08
0.15 0.13 0.09 0.08 0.06 0.05 0.06 0.06 0.06 0.06 0.07 0.06 0.08 0.13 0.17 0.13 0.14 0.13 0.10 0.08 0.06 0.06 0.05 0.04 0.05 0.05 0.05 0.04 0.06 0.06 0.03 0.06 0.15 0.19 0.15 0.15 0.09 0.06 0.06 0.08 0.09 0.11 0.12
0.07 0.07 0.04 0.04 0.04 0.04 0.05 0.06 0.07 0.07 0.07 0.07 0.09 0.14 0.15 0.10 0.09 0.10 0.10 0.08 0.06 0.05 0.06 0.05 0.05 0.04 0.05 0.04 0.05 0.03 0.02 0.05 0.06 0.11 0.13 0.11 0.08 0.07 0.10 0.10 0.08 0.11 0.14
0.05 0.04 0.04 0.03 0.03 0.04 0.04 0.05 0.08 0.07 0.07 0.05 0.05 0.09 0.08 0.06 0.07 0.07 0.08 0.06 0.05 0.04 0.05 0.05 0.05 0.04 0.04 0.05 0.03 0.01 0.01 0.03 0.03 0.05 0.07 0.07 0.04 0.05 0.08 0.09 0.10 0.10 0.14
0.05 0.04 0.05 0.05 0.04 0.04 0.03 0.04 0.05 0.06 0.05 0.03 0.03 0.05 0.05 0.05 0.07 0.07 0.06 0.04 0.05 0.05 0.06 0.06 0.05 0.05 0.03 0.02 0.01 0.01 0.02 0.03 0.04 0.04 0.06 0.06 0.04 0.05 0.06 0.07 0.12 0.14 0.12
0.05 0.06 0.07 0.07 0.06 0.05 0.05 0.04 0.06 0.08 0.06 0.05 0.05 0.05 0.06 0.07 0.09 0.09 0.06 0.05 0.05 0.07 0.07 0.06 0.06 0.04 0.02 0.01 0.01 0.02 0.03 0.04 0.05 0.04 0.04 0.04 0.05 0.06 0.06 0.07 0.09 0.09 0.10
0.16 0.12 0.08 0.08 0.07 0.06 0.03 0.04 0.08 0.09 0.08 0.09 0.08 0.08 0.08 0.06 0.08 0.09 0.07 0.06 0.05 0.06 0.06 0.06 0.06 0.05 0.04 0.03 0.03 0.03 0.04 0.04 0.05 0.04 0.04 0.08 0.10 0.09 0.07 0.06 0.07 0.07 0.09
0.35 0.24 0.12 0.08 0.06 0.05 0.04 0.04 0.07 0.08 0.09 0.09 0.07 0.06 0.07 0.06 0.09 0.10 0.11 0.09 0.09 0.07 0.05 0.04 0.05 0.06 0.07 0.06 0.07 0.05 0.05 0.04 0.05 0.03 0.03 0.05 0.08 0.08 0.05 0.06 0.07 0.07 0.09
0.28 0.20 0.08 0.07 0.07 0.06 0.05 0.04 0.04 0.05 0.06 0.06 0.07 0.07 0.06 0.06 0.08 0.09 0.10 0.09 0.11 0.08 0.07 0.04 0.06 0.10 0.12 0.10 0.08 0.07 0.06 0.04 0.04 0.04 0.04 0.02 0.02 0.03 0.04 0.06 0.06 0.07 0.06
0.14 0.09 0.06 0.05 0.06 0.05 0.04 0.04 0.04 0.05 0.04 0.04 0.06 0.08 0.08 0.06 0.07 0.09 0.10 0.10 0.10 0.07 0.07 0.07 0.08 0.11 0.11 0.11 0.07 0.05 0.05 0.04 0.04 0.04 0.05 0.04 0.03 0.03 0.04 0.05 0.06 0.06 0.06
0.06 0.05 0.04 0.03 0.03 0.03 0.03 0.04 0.04 0.02 0.03 0.03 0.05 0.06 0.07 0.07 0.08 0.10 0.09 0.08 0.07 0.07 0.09 0.10 0.11 0.14 0.12 0.10 0.07 0.05 0.06 0.07 0.07 0.05 0.08 0.06 0.03 0.02 0.03 0.03 0.04 0.05 0.05
0.05 0.03 0.02 0.02 0.01 0.02 0.02 0.02 0.01 0.01 0.02 0.03 0.05 0.04 0.04 0.06 0.08 0.10 0.07 0.06 0.05 0.05 0.10 0.12 0.14 0.16 0.13 0.10 0.07 0.06 0.07 0.07 0.06 0.05 0.07 0.06 0.03 0.02 0.03 0.03 0.03 0.04 0.05
0.04 0.03 0.02 0.01 0.01 0.01 0.02 0.02 0.01 0.01 0.03 0.04 0.04 0.05 0.06 0.05 0.07 0.09 0.08 0.06 0.06 0.07 0.13 0.17 0.16 0.16 0.13 0.11 0.09 0.07 0.07 0.05 0.06 0.05 0.04 0.04 0.04 0.03 0.02 0.02 0.03 0.03 0.04
0.03 0.03 0.03 0.02 0.01 0.02 0.02 0.03 0.02 0.02 0.02 0.02 0.02 0.02 0.02 0.02 0.04 0.06 0.07 0.08 0.10 0.15 0.14 0.16 0.16 0.14 0.13 0.11 0.08 0.07 0.04 0.03 0.05 0.03 0.03 0.03 0.04 0.04 0.03 0.02 0.02 0.03 0.03
0.02 0.02 0.03 0.02 0.02 0.03 0.03 0.04 0.03 0.02 0.03 0.02 0.02 0.02 0.01 0.02 0.02 0.03 0.05 0.07 0.08 0.11 0.13 0.14 0.15 0.14 0.12 0.10 0.06 0.06 0.04 0.03 0.02 0.03 0.02 0.03 0.04 0.03 0.04 0.04 0.04 0.04 0.03
0.01 0.02 0.03 0.02 0.03 0.04 0.05 0.05 0.05 0.04 0.04 0.02 0.02 0.01 0.01 0.02 0.04 0.04 0.04 0.06 0.07 0.11 0.13 0.12 0.13 0.12 0.10 0.08 0.08 0.08 0.06 0.03 0.03 0.02 0.01 0.02 0.03 0.03 0.04 0.04 0.04 0.05 0.05
0.01 0.01 0.02 0.03 0.03 0.02 0.04 0.05 0.05 0.05 0.03 0.02 0.01 0.02 0.02 0.03 0.03 0.03 0.03 0.04 0.06 0.09 0.10 0.10 0.10 0.09 0.07 0.06 0.09 0.12 0.11 0.08 0.04 0.02 0.02 0.02 0.02 0.03 0.03 0.03 0.03 0.05 0.04
0.01 0.01 0.01 0.03 0.03 0.02 0.03 0.03 0.05 0.05 0.04 0.03 0.02 0.04 0.04 0.03 0.03 0.03 0.03 0.03 0.05 0.06 0.08 0.08 0.07 0.08 0.08 0.07 0.06 0.08 0.11 0.12 0.09 0.04 0.02 0.01 0.02 0.01 0.01 0.01 0.01 0.03 0.04
0.02 0.01 0.01 0.02 0.02 0.02 0.03 0.05 0.06 0.06 0.05 0.04 0.04 0.03 0.03 0.02 0.01 0.02 0.03 0.04 0.04 0.04 0.06 0.06 0.05 0.05 0.08 0.10 0.08 0.06 0.08 0.09 0.11 0.10 0.05 0.03 0.03 0.02 0.01 0.01 0.02 0.02 0.03
0.02 0.02 0.01 0.02 0.02 0.03 0.03 0.04 0.05 0.05 0.04 0.03 0.02 0.03 0.02 0.02 0.01 0.01 0.01 0.03 0.03 0.03 0.04 0.05 0.06 0.06 0.07 0.08 0.09 0.07 0.07 0.07 0.07 0.09 0.09 0.07 0.05 0.03 0.02 0.02 0.02 0.02 0.01
0.00 0.01 0.01 0.02 0.02 0.02 0.02 0.02 0.03 0.04 0.05 0.04 0.03 0.04 0.02 0.01 0.01 0.01 0.01 0.03 0.03 0.04 0.05 0.05 0.06 0.05 0.05 0.06 0.06 0.05 0.05 0.05 0.07 0.08 0.10 0.09 0.06 0.03 0.03 0.03 0.03 0.03 0.02
MSLP
1010.42 1010.33 1010.27 1010.24 1010.22 1010.17 1010.06 1009.89 1009.68 1009.47 1009.27 1009.11 1008.94 1008.74 1008.47 1008.09 1007.62 1007.10 1006.60 1006.18 1005.90 1005.75 1005.65 1005.52 1005.23 1004.70 1003.92 1002.96 1001.99 1001.19 1000.76 1000.85 1001.48 1002.62 1004.08 1005.63 1007.07 1008.25 1009.10 1009.65 1010.00 1010.30 1010.68
1010.39 1010.40 1010.47 1010.56 1010.63 1010.63 1010.53 1010.33 1010.06 1009.78 1009.52 1009.32 1009.18 1009.05 1008.88 1008.63 1008.26 1007.81 1007.32 1006.86 1006.50 1006.27 1006.16 1006.10 1006.03 1005.87 1005.57 1005.16 1004.73 1004.38 1004.24 1004.40 1004.88 1005.65 1006.60 1007.59 1008.48 1009.18 1009.69 1010.04 1010.32 1010.64 1011.08
1010.22 1010.37 1010.57 1010.80 1010.98 1011.06 1010.99 1010.77 1010.46 1010.11 1009.80 1009.57 1009.44 1009.36 1009.29 1009.16 1008.91 1008.54 1008.08 1007.59 1007.16 1006.83 1006.65 1006.58 1006.60 1006.62 1006.62 1006.57 1006.50 1006.45 1006.51 1006.71 1007.08 1007.60 1008.19 1008.78 1009.29 1009.70 1010.01 1010.26 1010.54 1010.91 1011.42
1009.94 1010.20 1010.54 1010.91 1011.23 1011.40 1011.39 1011.20 1010.87 1010.48 1010.12 1009.86 1009.73 1009.70 1009.70 1009.67 1009.53 1009.25 1008.83 1008.35 1007.87 1007.46 1007.17 1007.03 1007.01 1007.08 1007.19 1007.30 1007.40 1007.53 1007.69 1007.92 1008.23 1008.59 1008.99 1009.36 1009.68 1009.94 1010.17 1010.41 1010.73 1011.17 1011.74
1009.57 1009.93 1010.40 1010.91 1011.35 1011.64 1011.72 1011.58 1011.26 1010.86 1010.48 1010.20 1010.06 1010.04 1010.10 1010.14 1010.09 1009.90 1009.56 1009.11 1008.61 1008.14 1007.77 1007.53 1007.41 1007.41 1007.48 1007.60 1007.74 1007.91 1008.11 1008.36 1008.65 1008.97 1009.30 1009.61 1009.88 1010.12 1010.36 1010.63 1010.99 1011.46 1012.05
1009.21 1009.62 1010.18 1010.80 1011.37 1011.77 1011.95 1011.88 1011.61 1011.23 1010.85 1010.55 1010.39 1010.38 1010.45 1010.54 1010.56 1010.46 1010.20 1009.82 1009.36 1008.88 1008.45 1008.11 1007.89 1007.76 1007.73 1007.76 1007.85 1007.99 1008.19 1008.45 1008.76 1009.12 1009.48 1009.83 1010.15 1010.44 1010.72 1011.02 1011.39 1011.85 1012.40
1008.91 1009.34 1009.94 1010.63 1011.29 1011.79 1012.06 1012.08 1011.88 1011.54 1011.18 1010.88 1010.71 1010.68 1010.75 1010.86 1010.93 1010.90 1010.73 1010.44 1010.05 1009.61 1009.18 1008.80 1008.49 1008.25 1008.09 1008.01 1008.01 1008.09 1008.27 1008.55 1008.92 1009.35 1009.81 1010.25 1010.65 1011.01 1011.32 1011.63 1011.96 1012.35 1012.80
1008.76 1009.15 1009.75 1010.46 1011.15 1011.70 1012.05 1012.14 1012.02 1011.75 1011.43 1011.16 1010.99 1010.94 1010.99 1011.09 1011.19 1011.20 1011.12 1010.92 1010.63 1010.28 1009.90 1009.53 1009.19 1008.89 1008.64 1008.46 1008.38 1008.41 1008.58 1008.88 1009.31 1009.84 1010.40 1010.94 1011.43 1011.83 1012.16 1012.42 1012.66 1012.93 1013.25
1008.79 1009.12 1009.66 1010.32 1010.99 1011.55 1011.92 1012.08 1012.02 1011.83 1011.57 1011.34 1011.19 1011.13 1011.17 1011.25 1011.34 1011.38 1011.35 1011.23 1011.05 1010.80 1010.52 1010.22 1009.91 1009.60 1009.33 1009.11 1008.98 1008.99 1009.15 1009.48 1009.97 1010.57 1011.21 1011.83 1012.37 1012.79 1013.09 1013.28 1013.41 1013.54 1013.71
1009.00 1009.25 1009.70 1010.27 1010.86 1011.37 1011.73 1011.90 1011.90 1011.77 1011.59 1011.42 1011.31 1011.27 1011.29 1011.35 1011.42 1011.46 1011.45 1011.40 1011.30 1011.16 1010.98 1010.78 1010.54 1010.29 1010.04 1009.84 1009.71 1009.71 1009.88 1010.24 1010.76 1011.40 1012.09 1012.75 1013.30 1013.71 1013.96 1014.07 1014.09 1014.10 1014.15
1009.37 1009.54 1009.89 1010.34 1010.81 1011.21 1011.50 1011.65 1011.67 1011.61 1011.51 1011.42 1011.36 1011.35 1011.38 1011.43 1011.47 1011.49 1011.49 1011.46 1011.41 1011.35 1011.27 1011.17 1011.04 1010.87 1010.69 1010.53 1010.44 1010.46 1010.64 1011.00 1011.53 1012.17 1012.86 1013.51 1014.05 1014.42 1014.63 1014.68 1014.63 1014.56 1014.55
1009.85 1009.97 1010.21 1010.53 1010.85 1011.12 1011.31 1011.40 1011.42 1011.40 1011.37 1011.36 1011.38 1011.42 1011.48 1011.52 1011.54 1011.54 1011.51 1011.48 1011.45 1011.44 1011.43 1011.41 1011.37 1011.30 1011.21 1011.12 1011.07 1011.12 1011.31 1011.66 1012.15 1012.76 1013.40 1014.01 1014.51 1014.85 1015.02 1015.05 1014.99 1014.91 1014.88
1010.38 1010.48 1010.65 1010.84 1011.01 1011.13 1011.20 1011.21 1011.20 1011.19 1011.22 1011.28 1011.38 1011.49 1011.59 1011.65 1011.67 1011.64 1011.58 1011.53 1011.50 1011.49 1011.52 1011.56 1011.59 1011.61 1011.59 1011.58 1011.58 1011.66 1011.84 1012.15 1012.58 1013.12 1013.69 1014.22 1014.67 1014.99 1015.16 1015.21 1015.18 1015.14 1015.16
1010.91 1011.02 1011.15 1011.24 1011.28 1011.27 1011.21 1011.13 1011.07 1011.06 1011.12 1011.25 1011.41 1011.59 1011.74 1011.83 1011.85 1011.81 1011.74 1011.66 1011.60 1011.59 1011.62 1011.69 1011.77 1011.85 1011.90 1011.95 1012.00 1012.09 1012.26 1012.52 1012.87 1013.31 1013.78 1014.24 1014.64 1014.94 1015.13 1015.23 1015.28 1015.32 1015.41
1011.39 1011.54 1011.65 1011.68 1011.63 1011.51 1011.35 1011.19 1011.08 1011.05 1011.12 1011.27 1011.49 1011.71 1011.91 1012.03 1012.08 1012.05 1011.97 1011.87 1011.80 1011.77 1011.80 1011.87 1011.98 1012.10 1012.21 1012.30 1012.39 1012.49 1012.64 1012.84 1013.11 1013.45 1013.81 1014.19 1014.53 1014.81 1015.04 1015.21 1015.35 1015.49 1015.66
1011.76 1011.97 1012.09 1012.10 1012.01 1011.83 1011.61 1011.39 1011.23 1011.18 1011.23 1011.39 1011.61 1011.86 1012.08 1012.24 1012.32 1012.31 1012.25 1012.16 1012.08 1012.05 1012.07 1012.15 1012.27 1012.41 1012.55 1012.68 1012.80 1012.92 1013.04 1013.20 1013.39 1013.63 1013.89 1014.18 1014.46 1014.73 1014.98 1015.21 1015.44 1015.66 1015.90
1012.03 1012.27 1012.41 1012.44 1012.34 1012.16 1011.92 1011.70 1011.52 1011.44 1011.46 1011.59 1011.79 1012.02 1012.24 1012.41 1012.52 1012.55 1012.52 1012.46 1012.41 1012.38 1012.41 1012.49 1012.62 1012.77 1012.94 1013.10 1013.25 1013.38 1013.50 1013.62 1013.75 1013.90 1014.07 1014.27 1014.49 1014.73 1014.99 1015.26 1015.54 1015.83 1016.11
1012.17 1012.43 1012.59 1012.64 1012.59 1012.45 1012.26 1012.06 1011.89 1011.80 1011.78 1011.86 1012.00 1012.18 1012.37 1012.53 1012.65 1012.72 1012.74 1012.73 1012.72 1012.73 1012.77 1012.86 1012.99 1013.15 1013.34 1013.52 1013.69 1013.84 1013.97 1014.07 1014.15 1014.24 1014.33 1014.45 1014.60 1014.80 1015.04 1015.31 1015.62 1015.93 1016.23
1012.19 1012.44 1012.61 1012.70 1012.71 1012.66 1012.55 1012.43 1012.31 1012.22 1012.18 1012.19 1012.25 1012.36 1012.48 1012.61 1012.72 1012.82 1012.89 1012.94 1012.99 1013.04 1013.11 1013.20 1013.34 1013.50 1013.69 1013.88 1014.07 1014.24 1014.37 1014.47 1014.53 1014.57 1014.60 1014.65 1014.73 1014.86 1015.05 1015.31 1015.60 1015.92 1016.22
1012.14 1012.34 1012.50 1012.63 1012.72 1012.77 1012.79 1012.77 1012.73 1012.68 1012.62 1012.57 1012.54 1012.55 1012.59 1012.65 1012.75 1012.86 1012.97 1013.08 1013.19 1013.28 1013.38 1013.49 1013.61 1013.76 1013.94 1014.13 1014.32 1014.50 1014.65 1014.75 1014.81 1014.81 1014.79 1014.77 1014.78 1014.84 1014.97 1015.18 1015.44 1015.75 1016.05
1012.03 1012.18 1012.32 1012.47 1012.63 1012.80 1012.95 1013.07 1013.13 1013.13 1013.08 1012.98 1012.87 1012.77 1012.71 1012.71 1012.77 1012.88 1013.02 1013.19 1013.34 1013.48 1013.60 1013.71 1013.81 1013.93 1014.07 1014.24 1014.42 1014.60 1014.76 1014.87 1014.93 1014.92 1014.86 1014.78 1014.72 1014.70 1014.76 1014.91 1015.14 1015.42 1015.72
1011.93 1012.01 1012.12 1012.29 1012.51 1012.78 1013.06 1013.31 1013.49 1013.56 1013.53 1013.40 1013.22 1013.03 1012.88 1012.81 1012.82 1012.92 1013.09 1013.29 1013.48 1013.66 1013.79 1013.88 1013.95 1014.02 1014.11 1014.24 1014.39 1014.56 1014.72 1014.84 1014.90 1014.88 1014.81 1014.69 1014.56 1014.47 1014.46 1014.54 1014.72 1014.98 1015.29
1011.87 1011.91 1011.98 1012.15 1012.41 1012.76 1013.14 1013.51 1013.78 1013.94 1013.94 1013.80 1013.58 1013.32 1013.10 1012.96 1012.93 1013.01 1013.19 1013.41 1013.64 1013.83 1013.97 1014.04 1014.07 1014.08 1014.11 1014.18 1014.29 1014.43 1014.59 1014.72 1014.79 1014.78 1014.69 1014.54 1014.37 1014.22 1014.13 1014.14 1014.27 1014.51 1014.83
1011.86 1011.88 1011.93 1012.08 1012.36 1012.75 1013.20 1013.65 1014.01 1014.23 1014.27 1014.15 1013.90 1013.61 1013.33 1013.14 1013.07 1013.14 1013.32 1013.57 1013.82 1014.02 1014.16 1014.21 1014.19 1014.15 1014.12 1014.12 1014.19 1014.31 1014.45 1014.59 1014.68 1014.69 1014.60 1014.44 1014.24 1014.04 1013.88 1013.83 1013.90 1014.10 1014.41
1011.88 1011.91 1011.95 1012.08 1012.35 1012.75 1013.23 1013.72 1014.14 1014.41 1014.49 1014.39 1014.15 1013.83 1013.53 1013.31 1013.22 1013.28 1013.47 1013.72 1013.99 1014.21 1014.34 1014.38 1014.33 1014.24 1014.15 1014.11 1014.13 1014.23 1014.37 1014.52 1014.63 1014.67 1014.61 1014.45 1014.23 1013.99 1013.78 1013.66 1013.66 1013.80 1014.08
1011.89 1011.95 1011.99 1012.11 1012.35 1012.73 1013.20 1013.70 1014.15 1014.45 1014.57 1014.49 1014.27 1013.96 1013.65 1013.42 1013.33 1013.38 1013.57 1013.84 1014.12 1014.35 1014.49 1014.52 1014.45 1014.33 1014.21 1014.13 1014.13 1014.21 1014.35 1014.52 1014.66 1014.74 1014.71 1014.57 1014.35 1014.08 1013.83 1013.64 1013.56 1013.63 1013.84
Thickness
5798 5798 5796 5795 5794 5792 5792 5791 5790 5790 5790 5790 5789 5789 5788 5787 5786 5785 5784 5783 5782 5781 5780 5779 5777 5777 5776 5775 5774 5773 5772 5772 5771 5771 5769 5768 5767 5765 5764 5762 5761 5759 5757
5801 5798 5795 5794 5793 5791 5790 5790 5789 5789 5789 5788 5787 5786 5786 5785 5784 5783 5782 5782 5781 5780 5778 5777 5776 5776 5775 5774 5773 5772 5771 5771 5770 5770 5768 5767 5765 5764 5763 5761 5760 5758 5756
5802 5798 5795 5793 5791 5790 5789 5789 5788 5787 5787 5787 5786 5785 5784 5783 5782 5781 5780 5780 5779 5778 5777 5776 5775 5775 5774 5773 5772 5771 5770 5770 5769 5769 5768 5766 5764 5763 5761 5760 5758 5757 5755
5802 5798 5794 5792 5790 5789 5788 5787 5787 5786 5786 5785 5784 5783 5782 5781 5780 5780 5779 5778 5778 5777 5776 5776 5775 5774 5773 5772 5771 5771 5770 5769 5768 5768 5768 5766 5764 5762 5760 5759 5757 5756 5754
5800 5796 5792 5790 5789 5788 5787 5786 5786 5785 5785 5784 5783 5782 5781 5780 5779 5779 5778 5777 5776 5776 5775 5775 5774 5773 5772 5772 5771 5770 5770 5769 5769 5768 5768 5766 5764 5761 5760 5758 5756 5755 5754
5799 5795 5791 5789 5788 5787 5786 5785 5785 5784 5783 5782 5782 5781 5780 5779 5778 5778 5777 5776 5775 5775 5774 5773 5773 5773 5772 5771 5771 5770 5770 5770 5769 5769 5769 5766 5763 5761 5759 5758 5756 5755 5753
5798 5795 5791 5788 5787 5786 5785 5785 5784 5783 5782 5781 5780 5780 5779 5778 5777 5776 5775 5775 5774 5774 5774 5773 5772 5772 5771 5771 5770 5769 5769 5769 5769 5770 5769 5766 5763 5761 5760 5758 5756 5754 5753
5799 5795 5791 5788 5787 5786 5785 5784 5782 5782 5781 5780 5780 5779 5778 5777 5777 5775 5775 5774 5773 5773 5773 5773 5772 5772 5771 5771 5770 5769 5769 5769 5770 5769 5768 5765 5763 5761 5759 5758 5756 5754 5752
5801 5797 5793 5790 5787 5786 5784 5783 5782 5781 5780 5780 5779 5779 5779 5778 5777 5775 5774 5774 5773 5773 5773 5773 5772 5772 5771 5770 5770 5770 5769 5769 5769 5768 5767 5764 5762 5761 5759 5757 5756 5754 5752
5801 5799 5796 5793 5790 5787 5785 5783 5782 5781 5780 5779 5779 5779 5779 5778 5777 5776 5775 5774 5774 5773 5773 5773 5773 5772 5771 5771 5771 5770 5770 5770 5770 5769 5766 5764 5762 5760 5759 5757 5755 5753 5751
5800 5800 5799 5796 5794 5791 5789 5785 5783 5782 5780 5779 5779 5779 5779 5779 5779 5778 5776 5775 5774 5774 5774 5773 5773 5772 5771 5771 5771 5771 5770 5770 5770 5768 5765 5763 5761 5760 5758 5756 5754 5753 5751
5797 5799 5800 5798 5795 5795 5793 5788 5786 5784 5781 5781 5781 5781 5781 5781 5781 5780 5777 5776 5775 5774 5774 5774 5773 5773 5772 5772 5772 5771 5771 5771 5770 5768 5764 5762 5760 5759 5757 5756 5753 5751 5750
5800 5800 5801 5799 5797 5796 5793 5791 5789 5787 5784 5783 5783 5783 5783 5782 5781 5780 5778 5777 5776 5776 5776 5776 5775 5774 5774 5774 5773 5773 5772 5772 5770 5766 5763 5761 5759 5758 5756 5755 5753 5750 5749
5801 5800 5802 5801 5798 5796 5795 5793 5792 5789 5787 5786 5785 5785 5785 5784 5783 5782 5781 5780 5779 5779 5779 5778 5777 5776 5775 5775 5774 5773 5773 5772 5769 5765 5762 5760 5759 5757 5756 5754 5752 5750 5748
5800 5801 5801 5801 5798 5796 5795 5794 5793 5791 5789 5788 5787 5786 5786 5785 5784 5784 5783 5782 5782 5781 5780 5779 5778 5777 5777 5775 5774 5773 5773 5771 5769 5766 5762 5760 5759 5757 5756 5754 5752 5750 5748
5802 5802 5802 5801 5799 5797 5795 5795 5794 5793 5791 5790 5788 5787 5786 5786 5785 5785 5784 5783 5783 5782 5781 5780 5779 5778 5776 5775 5774 5773 5772 5771 5769 5766 5762 5760 5758 5757 5756 5754 5752 5751 5749
5805 5805 5803 5802 5800 5798 5796 5796 5796 5794 5793 5791 5789 5787 5787 5786 5786 5786 5785 5783 5784 5784 5783 5780 5779 5778 5776 5775 5773 5773 5772 5771 5769 5767 5764 5761 5759 5757 5756 5754 5752 5751 5749
5808 5806 5805 5806 5801 5799 5797 5796 5796 5795 5793 5792 5790 5788 5787 5787 5787 5786 5785 5784 5784 5784 5783 5780 5779 5777 5775 5775 5773 5773 5772 5771 5769 5767 5766 5763 5760 5758 5755 5754 5752 5750 5748
5810 5808 5806 5805 5802 5800 5799 5797 5796 5795 5793 5792 5791 5789 5788 5788 5788 5788 5787 5785 5784 5783 5783 5782 5779 5777 5775 5774 5774 5773 5773 5771 5770 5769 5767 5765 5763 5760 5757 5754 5752 5750 5748
5813 5810 5807 5805 5803 5802 5800 5798 5797 5795 5794 5794 5792 5791 5790 5789 5789 5789 5788 5786 5786 5784 5782 5781 5778 5778 5777 5775 5775 5773 5773 5773 5772 5770 5768 5766 5764 5762 5758 5755 5752 5749 5747
5814 5811 5808 5805 5804 5802 5799 5796 5794 5793 5794 5794 5794 5792 5791 5791 5790 5790 5789 5787 5786 5784 5782 5781 5779 5776 5775 5776 5771 5767 5770 5773 5772 5771 5769 5767 5765 5763 5760 5756 5753 5750 5747
5815 5812 5809 5806 5805 5804 5801 5799 5798 5797 5796 5796 5796 5794 5793 5792 5791 5791 5788 5787 5786 5784 5783 5781 5779 5775 5775 5776 5769 5763 5758 5761 5766 5771 5769 5767 5765 5763 5760 5758 5755 5752 5749
5818 5815 5813 5810 5808 5806 5804 5802 5801 5798 5796 5795 5794 5793 5793 5793 5791 5790 5789 5788 5787 5786 5782 5781 5779 5776 5772 5774 5774 5766 5756 5750 5756 5763 5766 5766 5764 5762 5761 5760 5757 5754 5751
5823 5820 5817 5813 5810 5808 5807 5803 5799 5795 5791 5793 5794 5795 5795 5794 5793 5792 5791 5789 5787 5786 5784 5782 5781 5779 5774 5770 5772 5773 5770 5765 5754 5751 5759 5763 5763 5762 5761 5760 5758 5756 5752
5829 5825 5820 5816 5812 5810 5808 5805 5801 5798 5797 5798 5797 5796 5795 5795 5794 5793 5792 5790 5788 5786 5785 5783 5781 5779 5777 5773 5771 5771 5770 5768 5765 5755 5750 5755 5758 5760 5760 5760 5759 5757 5754
5832 5828 5823 5816 5813 5811 5809 5807 5803 5801 5799 5797 5796 5794 5794 5795 5795 5794 5792 5790 5788 5787 5785 5783 5781 5779 5777 5775 5774 5772 5769 5765 5762 5759 5753 5752 5753 5757 5760 5760 5758 5756 5753